Regional Weather Roundup
Issued by NWS Mt. Holly, NJ

Home | Current Version | Previous Version | Text Only | Print | Product List | Glossary On
Versions: 1 2 3 4 5 6 7 8 9 10 11 12 13 14 15 16 17 18 19 20 21 22 23 24 25 26 27
000
ASUS41 KPHI 242210
RWRPHI

REGIONAL WEATHER ROUNDUP
NATIONAL WEATHER SERVICE MOUNT HOLLY NJ
600 PM EDT THU APR 24 2014

NOTE:  "FAIR" INDICATES FEW OR NO CLOUDS BELOW 12,000 FEET WITH NO
SIGNIFICANT WEATHER AND/OR OBSTRUCTIONS TO VISIBILITY.

 * = STATION DOES NOT REPORT PRECIPITATION (E.G. RAIN, SNOW, ETC.)
        OR FOG.

NJZ015>026-242300-
SOUTHERN NEW JERSEY

CITY           SKY/WX    TMP DP  RH WIND       PRES   REMARKS
POMONA         SUNNY     62  16  16 NW17G23   29.94R
RIO GRANDE*    SUNNY     57  30  35 NW8       29.98S
MILLVILLE      SUNNY     61  20  20 NW15G23   29.96S
WRIGHTSTOWN    SUNNY     61  15  16 NW15G24   29.92R
MOUNT HOLLY    SUNNY     62  11  13 NW16G26   29.95R
TRENTON        SUNNY     60  11  14 N17G26    29.93R

$$
NJZ001>014-242300-
NORTHERN NEW JERSEY

CITY           SKY/WX    TMP DP  RH WIND       PRES   REMARKS
SUSSEX         SUNNY     60  12  15 NW13G22   29.94R
ANDOVER*         N/A     57  12  17 N9G21     29.94R
MORRISTOWN     SUNNY     59  10  14 N14G31    29.92R
NEWARK         MOSUNNY   62   7  11 N29       29.89R
TETERBORO      SUNNY     63  14  15 NW16G26   29.88R
CALDWELL       SUNNY     59  12  15 N12G24    29.92R
SOMERVILLE     SUNNY     60  11  14 NW15G23   29.92R
ALLAIRE*       SUNNY     61  16  17 NW17G33   29.91R
TOMS RIVER*    SUNNY     59  14  17 NW13G20   29.92R

$$
PAZ043-044-047-054-055-060>062-066>071-242300-
EASTERN PENNSYLVANIA

CITY           SKY/WX    TMP DP  RH WIND       PRES   REMARKS
PHILADELPHIA   MOSUNNY   63  10  12 W16       29.97R
NORTH PHILA    SUNNY     63  11  13 NW17G26   29.96R
BLUE BELL      SUNNY     63  12  14 NW10G21   29.95R
DOYLESTOWN     SUNNY     59  14  17 N16G29    29.94R
QUAKERTOWN*    SUNNY     59  16  18 N8G21     29.97R
POTTSTOWN      SUNNY     61  18  18 NW7       29.97R
LANCASTER      SUNNY     61  17  18 NW14      29.98R
COATESVILLE    SUNNY     59  12  15 NW10      29.98S
READING        SUNNY     62  17  17 NW14      29.96S
ALLENTOWN      SUNNY     60  13  15 NW13      29.97R
MOUNT POCONO   SUNNY     51   7  16 NW17G30   29.95R
HAZLETON       SUNNY     54   3  13 N8        30.00R
WILKES BARRE   SUNNY     55  11  17 N16G24    29.99R

$$
DEZALL-MDZ008-012-015-019-020-242300-
DELAWARE AND EASTERN MARYLAND

CITY           SKY/WX    TMP DP  RH WIND       PRES   REMARKS
WILMINGTON     SUNNY     62  20  19 NW15      29.98S
DOVER          SUNNY     61  20  20 W18       29.95S
GEORGETOWN     SUNNY     62  19  19 NW8       29.99S
EASTON         SUNNY     63  27  25 NW12G23   30.04R
PATUXENT       PTSUNNY   57  27  31 SE5       30.01R
OCEAN CITY     SUNNY     63  20  19 NW12      29.99R
WALLOPS ISLAND SUNNY     62  28  27 NW14      30.00R
CAMBRIDGE      SUNNY     63  19  19 NW3       30.00S
SALISBURY      SUNNY     64  20  18 NW12      29.99S

$$
PAZ001-021-NYZ056-072-MDZ011-DCZ001-242300-
OTHER NEARBY LOCATIONS

CITY           SKY/WX    TMP DP  RH WIND       PRES   REMARKS
HARRISBURG     MOSUNNY   67  14  13 NW7       29.98R
STATE COLLEGE  SUNNY     63  10  13 VRB6      29.99S
WILLIAMSPORT   SUNNY     60  13  15 N10       29.99R
BINGHAMTON     SUNNY     48  19  31 NW12G18   30.00R
NEW YORK CITY  SUNNY     61  10  13 NW13G28   29.91R
BALTIMORE      MOSUNNY   63  20  19 NW10      29.99S
WASHINGTON DC  PTSUNNY   64  23  21 N9        30.02R

$$



USA.gov is the U.S. government's official web portal to all federal, state and local government web resources and services.